Idaho Falls, ID

10:19 PM MST on February 06, 2016 (GMT -0700)
Fanning

Weather History for KIDA - November, 2012

Change the Weather History Date:

Friday, November 2, 2012

  Actual Average Record
Temperature  
Mean Temperature 40 °F 39 °F  
Max Temperature 55 °F 51 °F 65 °F (1965)
Min Temperature 25 °F 27 °F -3 °F (1991)
Degree Days  
Heating Degree Days 25 26  
Month to date heating degree days 44 52  
Since 1 July heating degree days 807 974  
Cooling Degree Days 0 0  
Month to date cooling degree days 0 0  
Year to date cooling degree days 444 264  
Moisture  
Dew Point 29 °F    
Average Humidity 62    
Maximum Humidity 92    
Minimum Humidity 32    
Precipitation  
Precipitation 0.00 in 0.03 in 0.69 in (2008)
Month to date precipitation 0.00 0.05  
Year to date precipitation 5.18 8.70  
Sea Level Pressure  
Sea Level Pressure 30.16 in    
Wind  
Wind Speed 3 mph (SW)    
Max Wind Speed 10 mph    
Max Gust Speed 14 mph    
Visibility 10 miles    
Events      
T = Trace of Precipitation, MM = Missing Value Source: NWS Daily Summary

Daily Weather History Graph

Daily Weather History Graph

Search for Another Location

Airport or City:

Trip Planner

Search our weather history database for the weather conditions in past years. The results will help you decide how hot, cold, wet, or windy it might be!

Date:

Astronomy

Nov. 02, 2012 Rise Set
Actual Time 8:05 AM MDT 6:17 PM MDT
Civil Twilight 7:35 AM MDT 6:47 PM MDT
Nautical Twilight 7:01 AM MDT 7:21 PM MDT
Astronomical Twilight 6:28 AM MDT 7:54 PM MDT
Moon 9:04 PM MDT (11/2) 11:32 AM MDT (11/2)
Length of Visible Light 11h 11m
Length of Day
10h 11m
Waning Gibbous, 87% of the Moon is Illuminated
Nov 2
Waning Gibbous
Nov 6
Last Quarter
Nov 13
New
Nov 20
First Quarter
Nov 28
Full

Hourly Weather History & Observations

Time (MDT) Temp. Windchill Dew Point Humidity Pressure Visibility Wind Dir Wind Speed Gust Speed Precip Events Conditions
12:53 AM 41.0 °F 35.2 °F 33.1 °F 73% 30.04 in 10.0 mi South 9.2 mph - N/A   Clear
1:53 AM 39.0 °F - 32.0 °F 76% 30.07 in 10.0 mi Calm Calm - N/A   Clear
2:53 AM 37.0 °F - 30.9 °F 79% 30.09 in 10.0 mi Calm Calm - N/A   Clear
3:53 AM 37.0 °F 31.6 °F 30.9 °F 79% 30.09 in 10.0 mi South 6.9 mph - N/A   Clear
4:53 AM 34.0 °F 28.8 °F 30.0 °F 85% 30.11 in 10.0 mi SW 5.8 mph - N/A   Clear
5:53 AM 30.9 °F - 28.0 °F 89% 30.13 in 10.0 mi Calm Calm - N/A   Clear
6:53 AM 30.0 °F 24.1 °F 27.0 °F 88% 30.17 in 10.0 mi North 5.8 mph - N/A   Clear
7:53 AM 30.9 °F 27.5 °F 28.0 °F 89% 30.17 in 10.0 mi SE 3.5 mph - N/A   Clear
8:53 AM 28.9 °F 22.8 °F 26.1 °F 89% 30.19 in 10.0 mi North 5.8 mph - N/A   Clear
9:53 AM 36.0 °F 33.3 °F 32.0 °F 86% 30.20 in 10.0 mi North 3.5 mph - N/A   Clear
10:53 AM 42.1 °F - 34.0 °F 73% 30.20 in 10.0 mi Calm Calm - N/A   Clear
11:53 AM 46.0 °F 42.5 °F 35.1 °F 66% 30.20 in 10.0 mi SW 6.9 mph - N/A   Clear
12:53 PM 48.9 °F - 35.1 °F 59% 30.17 in 10.0 mi SSW 5.8 mph - N/A   Clear
1:53 PM 52.0 °F - 30.9 °F 45% 30.15 in 10.0 mi WSW 6.9 mph - N/A   Clear
2:53 PM 54.0 °F - 28.0 °F 37% 30.14 in 10.0 mi SW 6.9 mph - N/A   Clear
3:53 PM 54.0 °F - 26.1 °F 34% 30.12 in 10.0 mi SW 8.1 mph - N/A   Clear
4:53 PM 54.0 °F - 25.0 °F 33% 30.14 in 10.0 mi SW 6.9 mph - N/A   Clear
5:53 PM 50.0 °F - 26.1 °F 39% 30.16 in 10.0 mi SW 4.6 mph - N/A   Clear
6:53 PM 48.0 °F - 27.0 °F 44% 30.18 in 10.0 mi SSW 3.5 mph - N/A   Clear
7:53 PM 42.1 °F - 28.9 °F 60% 30.20 in 10.0 mi Calm Calm - N/A   Clear
8:53 PM 42.1 °F - 28.0 °F 58% 30.20 in 10.0 mi Calm Calm - N/A   Clear
9:53 PM 36.0 °F - 28.0 °F 73% 30.21 in 10.0 mi Calm Calm - N/A   Clear
10:53 PM 37.0 °F - 28.9 °F 73% 30.19 in 10.0 mi Calm Calm - N/A   Clear
11:53 PM 32.0 °F - 26.1 °F 79% 30.21 in 10.0 mi Calm Calm - N/A   Clear